COSMOS 568

Satellite information

Favourite Embed

Satellite Type and Status

PAYLOADIN ORBIT

Key statistics

Satellite COSMOS 568 at a glance.

Uptime

19182

Days in orbit

Revolutions

≈ 12.6

Per day

Orbit

LEO

Low Earth Orbit

Inclination

74.0

Latest

Satellite identification and parameters

Extended collection of information and parameters for COSMOS 568.

Object identification

Identified? True

Debris? False

Object name: COSMOS 568

International designator: 1973-037E

Object number (NORAD): 6679

Object ID (CCSDS): 6679

Country: COMMONWEALTH OF INDEPENDENT STATES (CIS)

Current information (Y/N): Y

RCS size: MEDIUM

Orbital parameters

Period: 114.381 minutes

Inclination: 74.0165 deg

SMA: 7805.418 km

Apoapsis: 1480.167 km

Periapsis: 1374.398 km

RAAN: 134.0317 deg

Eccentricy: 0.00677537

Argument of periapsis: 343.4767 deg

Mean anomaly: 85.1999 deg

Mean motion: 12.58950112 rev/day

Mean motion (dot): 0.00000014 rev/day2

B* drag term: 0.00017590597 1/REarth

Two-line elements (TLE)

Creation date: Dec. 14, 2025, 3:07 a.m.

Reference frame: TEME

Reference center: EARTH

Epoch: Dec. 13, 2025, 1:31 p.m. UTC

TLE line 0: 0 COSMOS 568

TLE line 1: 1 06679U 73037E 25347.56375248 .00000014 00000-0 17591-3 0 9990

TLE line 2: 2 06679 74.0165 134.0317 0067754 343.4767 85.1999 12.58950112413402

Live tracking on map

Real-time ground track for satellite COSMOS 568.

In-orbit conjunctions

There are no conjunctions computed for COSMOS 568, at the moment. Check back to stay up to date, as we update our databases every day.

Go to all conjunctions

Associated space launch

Military communications satellites

COSMOS 568 was lifted into orbit during the mission ‘Kosmos-3M | Strela-1M 41-48’, on board a Kosmos-3M space rocket.

The launch took place on June 8, 1973, 3:50 p.m. from 132/1 (132L).

For more information about the launch, click the button.

Launch to space Kosmos-3M | Strela-1M 41-48
Kosmos-3M | Strela-1M 41-48

Agency: N/A

Status: Launch Successful

Launch date: June 8, 1973, 3:50 p.m. UTC

Rocket: Kosmos-3M

Launch pad: 132/1 (132L)

Location: Plesetsk Cosmodrome, Russian Federation

...

Latest news about this satellite

There are no fresh news available about this satellite. Check back as we update our databases every day.


Newsletter sign-up

Weekly statistics, charts and insights to help you stay on top of the space industry.